Flag for Cabo Verde Weather past 2 weeks in Santa Maria, Cabo Verde

Now
68 °F

Passing clouds.


Feels Like: 68 °F
Forecast: 67 / 80 °F
Wind: 15 mph from East

Location: Sal

Current Time: Apr 1, 2015 at 12:11:54 AM

Latest Report: Mar 31, 2015 at 11:00 PM


Visibility: 4 mi

Pressure: 30.01 "Hg

Humidity: 88%

Dew point: 64 °F

Location of Santa MariaLocation

Historic Weather in Santa Maria — Graph

°F

Santa Maria temperature yesterday

Maximum temperature yesterday: 81 °F (at 12:00 PM)
Minimum temperature yesterday: 68 °F (at 12:00 AM)
Average temperature yesterday: 73 °F

Past Weeks' High & Low Weather Summary

 TemperatureHumidityPressure
High82 °F (Mar 30, 2:00 PM)94% (Mar 29, 6:00 AM)30.12 "Hg (Mar 29, 6:00 AM)
Low63 °F (Mar 21, 5:00 AM)28% (Mar 24, 8:00 AM)29.89 "Hg (Mar 20, 3:00 PM)
Average69 °F66%30.01 "Hg
* Reported Mar 16 11:00 PM — Mar 31 11:00 PM, Santa Maria, Weather by CustomWeather, © 2015

Note: Actual official high and low records may vary slightly from our data, if they occured in-between our weather recording intervals... More about our weather records

Advertising

Santa Maria weather history for previous 24 hours

 ConditionsComfort  
Time TempWeatherWind HumidityBarometerVisibility
11:00 PM
Tue, Mar 31
68 °FPassing clouds.15 mph88%30.01 "Hg4 mi
10:00 PM70 °FClear.12 mph83%30.01 "Hg4 mi
9:00 PM70 °FClear.13 mph78%30.01 "Hg4 mi
8:00 PM70 °FClear.12 mph78%29.98 "Hg4 mi
7:00 PM72 °FClear.14 mph73%29.98 "Hg4 mi
6:00 PM75 °FClear.15 mph65%29.95 "Hg5 mi
5:00 PM79 °FClear.15 mph54%29.95 "Hg5 mi
4:00 PM81 °FClear.17 mph54%29.95 "Hg5 mi
3:00 PM81 °FClear.17 mph54%29.95 "Hg5 mi
2:00 PM81 °FClear.21 mph54%29.98 "Hg6 mi
1:00 PM81 °FClear.20 mph51%30.01 "Hg6 mi
12:00 PM81 °FSunny.20 mph51%30.01 "Hg10 mi
11:00 AM79 °FSunny.20 mph58%30.04 "Hg10 mi
10:00 AM77 °FSunny.21 mph57%30.04 "Hg10 mi
9:00 AM73 °FSunny.20 mph65%30.04 "Hg10 mi
8:00 AM72 °FSunny.15 mph69%30.01 "Hg10 mi
7:00 AM70 °FPartly sunny.15 mph73%30.01 "HgN/A
6:00 AM70 °FPartly sunny.13 mph73%29.98 "HgN/A
5:00 AM68 °FPartly sunny.14 mph83%29.98 "HgN/A
4:00 AM68 °FPassing clouds.14 mph83%29.98 "HgN/A
3:00 AM68 °FPassing clouds.12 mph83%29.98 "HgN/A
2:00 AM68 °FPassing clouds.13 mph83%30.01 "HgN/A
1:00 AM68 °FPassing clouds.12 mph83%30.01 "HgN/A
12:00 AM68 °FPassing clouds.12 mph83%30.01 "HgN/A
Weather by CustomWeather, © 2015

See weather overviewHow to use our weather pages